This is the latest recevied weather packets stored in our database for station/object N3SBK. If no packets are shown the sender has not sent any weather packets the latest 10 day(s).
| Time | Temp. | Humidity | Pressure | Rain* | Wind** | Luminosity | Snow |
|---|---|---|---|---|---|---|---|
| 1787661007 | 16.67° C | 83% | 1011.3 hPa | 0 mm | - | 60 W/m² | - |
| 1787660701 | 16.67° C | 82% | 1011.3 hPa | 0 mm | - | 58 W/m² | - |
| 1787660396 | 16.67° C | 82% | 1011.3 hPa | 0 mm | - | 53 W/m² | - |
| 1787660092 | 16.67° C | 82% | 1011.2 hPa | 0 mm | - | 50 W/m² | - |
| 1787659790 | 16.67° C | 83% | 1011.2 hPa | 0 mm | - | 48 W/m² | - |
| 1787659489 | 16.11° C | 83% | 1011.2 hPa | 0 mm | - | 45 W/m² | - |
| 1787659189 | 16.11° C | 83% | 1011.2 hPa | 0 mm | - | 40 W/m² | - |
| 1787658884 | 16.11° C | 83% | 1011.2 hPa | 0 mm | - | 37 W/m² | - |
| 1787658584 | 16.11° C | 82% | 1011.1 hPa | 0 mm | - | 31 W/m² | - |
| 1787658280 | 16.11° C | 83% | 1011.3 hPa | 0 mm | - | 21 W/m² | - |
| 1787657975 | 16.11° C | 83% | 1011.1 hPa | 0 mm | - | 17 W/m² | - |
| 1787657670 | 16.11° C | 83% | 1011.1 hPa | 0 mm | - | 17 W/m² | - |
| 1787657365 | 16.11° C | 83% | 1011 hPa | 0 mm | - | 13 W/m² | - |
| 1787657060 | 16.11° C | 82% | 1010.9 hPa | 0 mm | - | 10 W/m² | - |
| 1787656758 | 16.11° C | 82% | 1010.8 hPa | 0 mm | - | 7 W/m² | - |
| 1787656452 | 16.11° C | 83% | 1010.7 hPa | 0 mm | - | 8 W/m² | - |
| 1787656147 | 16.11° C | 82% | 1010.6 hPa | 0 mm | - | 7 W/m² | - |
| 1787655844 | 16.11° C | 82% | 1010.8 hPa | 0 mm | - | 5 W/m² | - |
| 1787655543 | 16.11° C | 84% | 1011 hPa | 0 mm | - | 4 W/m² | - |
| 1787655242 | 16.11° C | 83% | 1010.7 hPa | 0 mm | - | 2 W/m² | - |
| 1787654938 | 16.11° C | 82% | 1010.8 hPa | 0 mm | - | 2 W/m² | - |
| 1787654634 | 16.11° C | 82% | 1010.8 hPa | 0 mm | - | 1 W/m² | - |
| 1787654330 | 16.11° C | 82% | 1010.6 hPa | 0 mm | - | 1 W/m² | - |
| 1787654025 | 16.11° C | 82% | 1010.6 hPa | 0 mm | - | 1 W/m² | - |
| 1787653724 | 16.11° C | 82% | 1010.4 hPa | 0 mm | - | 0 W/m² | - |
* Rain latest hour (hover to see other rain measurements)
** Current wind speed in m/s (hover to see current wind gust speed)